{"data":{"norad_id":25924,"intl_designator":"1999-053A","name":"ABS-6","alt_names":[],"object_type":"PAYLOAD","status":"ACTIVE","operator":null,"country":"ABS","launch_date":"1999-09-26","launch_site_code":"TYMSC","launch_vehicle":null,"mission":null,"orbit_class":"UNKNOWN","rcs_meters":39.8107,"size_class":null,"mass_kg":null,"dimensions":null,"purposes":["comms"],"wikipedia_slug":null,"has_3d_model":false,"image_url":null,"decayed_at":null,"tle_current":{"epoch":"2026-05-25T04:54:38.767104Z","epoch_age_seconds":51238,"freshness":"FRESH","line1":"1 25924U 99053A   26145.20461536 -.00000121  00000+0  00000+0 0  9996","line2":"2 25924   0.0146 304.1915 0003960 133.3002  37.9833  1.00274704 97619","mean_motion":1.00274704,"eccentricity":0.000396,"inclination_deg":0.0146,"raan_deg":304.1915,"arg_perigee_deg":133.3002,"mean_anomaly_deg":37.9833,"bstar":0,"rev_number":9761,"period_min":1436.0550992003,"perigee_km":35769.079769562,"apogee_km":35802.473589196,"semimajor_km":42163.913679379,"source":"CELESTRAK","updated_at":"2026-05-25T13:38:13.808918Z"}}}